[TLELIST] Archives

 

[list_settings.list_name] Current TLEs

April 20th 2012 PST

HST 1 20580U 90037B 12110.27074257 .00001525 00000-0 10000-3 0 9855 2 20580 028.4694 169.0681 0003597 152.7600 207.3227 15.02383503 5868 ISS (ZARYA) 1 25544U 98067A 12111.42744411 .00017479 00000-0 23037-3 0 4084 2 25544 051.6449 051.3945 0007713 301.5700 160.2993 15.58488634769017 CXO 1 25867U 99040B 12110.70833333 -.00000158 00000-0 00000+0 0 7267 2 25867 071.9975 009.0779 8753702 278.0737 353.0283 00.37804035 8930 ____________________________________________________________________ These 2-Line ...Continue Reading

[list_settings.list_name] Current TLEs

April 19th 2012 PST

HST 1 20580U 90037B 12110.27074257 .00001525 00000-0 10000-3 0 9855 2 20580 028.4694 169.0681 0003597 152.7600 207.3227 15.02383503 5868 ISS (ZARYA) 1 25544U 98067A 12110.21577222 .00014632 00000-0 19438-3 0 4015 2 25544 051.6428 057.4730 0007717 293.3803 205.8812 15.58434290768822 CXO 1 25867U 99040B 12110.70833333 -.00000158 00000-0 00000+0 0 7267 2 25867 071.9975 009.0779 8753702 278.0737 353.0283 00.37804035 8930 ____________________________________________________________________ These 2-Line ...Continue Reading

[list_settings.list_name] Current TLEs

April 18th 2012 PST

HST 1 20580U 90037B 12108.60998755 .00001462 00000-0 95374-4 0 9844 2 20580 028.4698 179.9308 0003746 135.7520 224.3311 15.02377628 5613 ISS (ZARYA) 1 25544U 98067A 12109.43875853 .00014174 00000-0 18870-3 0 3950 2 25544 051.6436 061.3708 0007628 290.9007 166.1582 15.58408926768707 CXO 1 25867U 99040B 12108.08333333 .00000009 00000-0 00000+0 0 7242 2 25867 071.9725 009.2830 8755798 278.0582 355.7251 00.37806989 8921 ____________________________________________________________________ These 2-Line ...Continue Reading

[list_settings.list_name] Current TLEs

April 17th 2012 PST

HST 1 20580U 90037B 12106.68350846 .00001800 00000-0 12027-3 0 9831 2 20580 028.4692 192.5354 0003594 111.6859 248.4126 15.02373581 5321 ISS (ZARYA) 1 25544U 98067A 12108.10636574 .00013919 00000-0 18570-3 0 3894 2 25544 051.6437 068.0559 0007609 284.6579 252.4343 15.58369046768498 CXO 1 25867U 99040B 12108.08333333 .00000009 00000-0 00000+0 0 7242 2 25867 071.9725 009.2830 8755798 278.0582 355.7251 00.37806989 8921 ____________________________________________________________________ These 2-Line ...Continue Reading

[list_settings.list_name] Current TLEs

April 16th 2012 PST

HST 1 20580U 90037B 12106.68350846 .00001800 00000-0 12027-3 0 9831 2 20580 028.4692 192.5354 0003594 111.6859 248.4126 15.02373581 5321 ISS (ZARYA) 1 25544U 98067A 12107.39408750 .00016207 00000-0 21519-3 0 3842 2 25544 051.6434 071.6281 0007582 281.4230 217.0777 15.58355118768387 CXO 1 25867U 99040B 12108.08333333 .00000009 00000-0 00000+0 0 7242 2 25867 071.9725 009.2830 8755798 278.0582 355.7251 00.37806989 8921 ____________________________________________________________________ These 2-Line ...Continue Reading

[list_settings.list_name] Current TLEs

April 15th 2012 PST

HST 1 20580U 90037B 12105.68705032 .00001610 00000-0 10630-3 0 9827 2 20580 028.4696 199.0539 0003584 103.6283 256.4737 15.02369888 5178 ISS (ZARYA) 1 25544U 98067A 12106.43293333 .00016178 00000-0 21508-3 0 3783 2 25544 051.6434 076.4500 0007594 277.7103 225.1147 15.58323923768238 CXO 1 25867U 99040B 12105.45833333 .00000123 00000-0 00000+0 0 7231 2 25867 071.9494 009.4713 8756010 278.0387 358.4593 00.37804320 8912 ____________________________________________________________________ These 2-Line ...Continue Reading

[list_settings.list_name] Current TLEs

April 14th 2012 PST

HST 1 20580U 90037B 12104.69058930 .00001474 00000-0 96242-4 0 9816 2 20580 028.4696 205.5706 0003602 092.1456 267.9559 15.02366592 5024 ISS (ZARYA) 1 25544U 98067A 12105.40582031 .00021616 00000-0 28514-3 0 3726 2 25544 051.6445 081.6046 0007913 276.0640 220.9248 15.58304981768076 CXO 1 25867U 99040B 12105.45833333 .00000123 00000-0 00000+0 0 7231 2 25867 071.9494 009.4713 8756010 278.0387 358.4593 00.37804320 8912 ____________________________________________________________________ These 2-Line ...Continue Reading

[list_settings.list_name] Current TLEs

April 13th 2012 PST

HST 1 20580U 90037B 12103.69412462 .00001425 00000-0 92698-4 0 9805 2 20580 028.4698 212.0904 0003489 082.4710 277.6206 15.02363805 4870 ISS (ZARYA) 1 25544U 98067A 12104.38331503 .00011767 00000-0 15880-3 0 3658 2 25544 051.6423 086.7299 0007610 269.5873 247.5316 15.58243674767911 CXO 1 25867U 99040B 12102.83333333 .00000040 00000-0 00000+0 0 7222 2 25867 071.9305 009.6331 8755964 278.0229 001.2147 00.37804930 8907 ____________________________________________________________________ These 2-Line ...Continue Reading

[list_settings.list_name] Current TLEs

April 12th 2012 PST

HST 1 20580U 90037B 12101.50189587 .00001554 00000-0 10217-3 0 9799 2 20580 028.4695 226.4333 0003291 062.4900 297.5817 15.02358714 4548 ISS (ZARYA) 1 25544U 98067A 12103.48293093 .00011133 00000-0 15073-3 0 3593 2 25544 051.6427 091.2461 0007699 266.9160 236.0056 15.58218917767774 CXO 1 25867U 99040B 12102.83333333 .00000040 00000-0 00000+0 0 7222 2 25867 071.9305 009.6331 8755964 278.0229 001.2147 00.37804930 8907 ____________________________________________________________________ These 2-Line ...Continue Reading

[list_settings.list_name] Current TLEs

April 11th 2012 PST

HST 1 20580U 90037B 12101.50189587 .00001554 00000-0 10217-3 0 9799 2 20580 028.4695 226.4333 0003291 062.4900 297.5817 15.02358714 4548 ISS (ZARYA) 1 25544U 98067A 12102.39596936 .00011506 00000-0 15570-3 0 3523 2 25544 051.6419 096.6971 0007789 262.2706 259.2386 15.58194674767603 CXO 1 25867U 99040B 12102.83333333 .00000040 00000-0 00000+0 0 7222 2 25867 071.9305 009.6331 8755964 278.0229 001.2147 00.37804930 8907 ____________________________________________________________________ These 2-Line ...Continue Reading
  • This mailing list is a public mailing list - anyone may join or leave, at any time.
  • This mailing list is announce-only.

International Space Station (ISS) / Hubble Space Telescope (HST) / Chandra X-Ray Observatory Orbital Data via EMAIL

Privacy Policy:

Private list